Regional Weather Roundup
Issued by NWS Cleveland, OH

Home | Current Version | Previous Version | Text Only | Print | Product List | Glossary On
Versions: 1 2 3 4 5 6 7 8 9 10 11 12 13 14 15 16 17 18 19 20 21 22 23 24 25 26 27 28 29 30 31 32 33 34 35 36 37 38 39 40 41 42 43 44 45 46 47 48 49 50
000
ASUS41 KCLE 261612
RWRCLE
OHIO REGIONAL WEATHER ROUNDUP
NATIONAL WEATHER SERVICE WILMINGTON, OH
1200 PM EDT SUN MAR 26 2017

NOTE: "FAIR" INDICATES FEW OR NO CLOUDS BELOW 12,000 FEET WITH NO
SIGNIFICANT WEATHER AND/OR OBSTRUCTIONS TO VISIBILITY.

OHZ001>008-015>018-024>027-034-035-043-044-261700-
   NORTHWEST OHIO

CITY           SKY/WX    TMP DP  RH WIND       PRES   REMARKS
DEFIANCE       RAIN      42  41  96 E9        29.97F FOG
FINDLAY        CLOUDY    49  46  90 SE5       29.96F FOG
TOLEDO EXPRESS LGT RAIN  41  41 100 E6        29.98F FOG
TOLEDO EXEC    RAIN      42  41  96 NE3       29.98F FOG
LIMA           CLOUDY    59  56  89 S12       29.96F
$$

OHZ009>014-019>023-028>033-038-089-261700-
   NORTHEAST OHIO

CITY           SKY/WX    TMP DP  RH WIND       PRES   REMARKS
CLE-HOPKINS    CLOUDY    67  47  48 S15       30.01S
CLE-LAKEFRONT  PTSUNNY   69  49  48 S18G24    29.98S
CUY CO. ARPT   CLOUDY    68  52  56 S15G24    29.99F
LORAIN-ELYRIA  FAIR      64  49  57 S9        29.98F
ASHTABULA      FAIR      62  50  64 SE14G22   30.04F
AKRON-CANTON   CLOUDY    68  48  48 S16G23    30.02F
WOOSTER        PTSUNNY   64  49  57 S15       30.01F
MANSFIELD      LGT RAIN  59  55  87 S7        30.01R
YOUNGSTOWN     CLOUDY    65  49  56 SE14G23   30.04F
$$

OHZ042-051>053-060>062-070>072-077>081-261700-
  SOUTHWEST OHIO

CITY           SKY/WX    TMP DP  RH WIND       PRES   REMARKS
CINC-COVINGTON RAIN      58  57  97 S7        29.98F FOG
CINC-LUNKEN    LGT RAIN  58  58 100 S9        30.01S FOG
HAMILTON       LGT RAIN  58  58 100 SE5       29.99F FOG
DAYTON         LGT RAIN  58  54  86 S16       29.98F
WRIGHT-PAT AFB LGT RAIN  61  59  94 S15       29.98S FOG
DAYTON GENERAL LGT RAIN  59  56  89 S15G21    29.99S
WILMINGTON     CLOUDY    59  56  89 S17       29.99F
$$

OHZ036-037-039>041-045>050-054>059-063>069-073>076-082>088-261700-
  CENTRAL AND SOUTHEAST OHIO

CITY           SKY/WX    TMP DP  RH WIND       PRES   REMARKS
COLUMBUS       LGT RAIN  59  57  93 S8        30.01F FOG
OSU AIRPORT    LGT RAIN  58  57  97 S9        30.00S
BOLTON FIELD   LGT RAIN  57  55  94 S9        30.02S
RICKENBACK AFB LGT RAIN  56  56  99 S6        30.01F
NEWARK         LGT RAIN  60  52  74 S8        30.02F
MARION         LGT RAIN  56  53  90 SE8       30.00F FOG
LANCASTER      LGT RAIN  59  54  83 S7        30.03F
ZANESVILLE     CLOUDY    65  48  54 SW12      30.03S
NEW PHILLY     PTSUNNY   68  49  50 S12       30.03F
$$




USA.gov is the U.S. government's official web portal to all federal, state and local government web resources and services.